Location: Gu�tanj
(46.5431°N, 14.9692°E)
Time: 23:48:21
(UTC+00:00)

X-37B - Pass Details

Date: 28 September 2021
Orbit: 385 x 389 km, 45.0° (Epoch: 17 October)

Event Time Altitude Azimuth Distance (km) Brightness Sun altitude
Exits shadow 02:26:08 20° 98° (E) 952 3.1 -25.6°
Drops below altitude 10° 02:27:20 10° 90° (E) 1,414 4.2 -25.4°
Sets 02:29:26 0° 86° (E) 2,271 5.6 -25.1°
